Date,TemperatureHighF,TemperatureAvgF,TemperatureLowF,DewpointHighF,DewpointAvgF,DewpointLowF,HumidityHigh,HumidityAvg,HumidityLow,PressureMaxIn,PressureMinIn,WindSpeedMaxMPH,WindSpeedAvgMPH,GustSpeedMaxMPH,PrecipitationSumIn
2013-3-1,58.1,49.6,41.2,38.1,35.0,29.7,82,59,36,30.18,30.09,27,6,27,0.00
2013-3-2,45.0,40.7,34.0,33.8,30.4,27.7,87,67,54,30.27,30.17,22,4,22,0.00
2013-3-3,58.3,44.0,29.3,39.9,31.3,25.9,93,65,34,30.31,30.11,13,2,13,0.00
2013-3-4,70.9,59.1,43.5,59.2,51.0,39.7,91,76,58,30.12,29.91,24,7,25,0.00
2013-3-5,72.5,65.2,54.3,64.0,52.0,33.4,90,66,32,30.23,29.90,27,7,27,0.00
2013-3-6,61.2,51.8,40.5,35.2,30.2,27.0,66,45,28,30.36,30.22,18,4,18,0.00
2013-3-7,63.9,51.8,40.5,43.7,36.8,32.4,76,58,38,30.36,30.22,9,2,10,0.00
2013-3-8,70.0,57.4,42.6,50.2,43.5,35.8,94,64,35,30.30,30.13,9,1,9,0.00
2013-3-9,71.2,62.6,53.2,61.3,56.0,48.0,89,79,71,30.15,29.92,22,5,22,0.00
2013-3-10,77.0,67.8,55.8,66.2,61.9,53.8,95,82,60,29.96,29.82,29,7,29,0.00
2013-3-11,58.1,51.7,44.8,54.0,43.3,38.3,96,75,49,30.06,29.91,26,7,26,0.00
2013-3-12,66.0,53.8,40.6,41.7,39.1,35.8,91,61,35,30.23,30.05,15,3,15,0.00
2013-3-13,66.6,56.3,45.5,41.7,33.6,20.8,81,47,18,30.42,30.22,23,4,23,0.00
2013-3-14,69.1,56.7,44.4,47.1,32.9,22.5,74,42,26,30.45,30.28,11,2,11,0.00
2013-3-15,73.6,60.7,46.0,53.6,48.4,41.5,96,68,33,30.31,30.12,23,4,23,0.00
2013-3-16,75.6,64.7,52.9,59.7,55.3,51.4,96,74,49,30.14,29.93,20,4,20,0.00
2013-3-17,78.3,67.8,58.8,66.6,61.5,56.8,95,82,53,29.96,29.79,21,4,23,0.00
2013-3-18,81.9,73.7,67.8,69.6,67.2,63.1,94,81,60,29.91,29.75,18,5,18,0.00
2013-3-19,76.5,66.6,55.0,63.1,51.9,42.4,86,61,36,30.03,29.91,18,4,18,0.00
2013-3-20,71.6,61.8,53.6,57.2,40.1,27.1,84,48,20,30.19,29.99,22,5,22,0.00
2013-3-21,65.5,57.6,50.0,47.5,37.3,27.7,69,48,35,30.06,29.83,15,3,15,0.00
2013-3-22,77.9,66.4,56.8,68.9,61.2,47.5,94,84,69,29.88,29.73,13,3,15,0.00
2013-3-23,70.2,67.8,65.5,68.5,66.6,64.6,98,96,93,29.80,29.55,10,2,11,0.00
2013-3-24,69.4,60.3,47.7,68.7,49.1,32.2,98,70,32,30.05,29.60,29,10,29,0.00
2013-3-25,50.2,42.7,38.8,33.6,31.0,23.0,75,64,36,30.26,30.05,20,8,22,0.00